Location: Deer Lodge Site
(39.6809°N, 119.9392°W)
Time: 17:57:23
(UTC-07:00)

Amateur Radio Satellites - All Passes

Search period start: 27 July 2016 17:27
Search period end: 28 July 2016 17:27
Location: Deer Lodge Site, 39.6809°N, 119.9392°W

Satellite Date Start Highest point End Downlink Frequencies (MHz)
Time Altitude Azimuth
BEESAT 3 27 Jul 17:28:43 17:29:29 10° 108° (ESE) 17:30:13 437.485
STARS 27 Jul 17:34:52 17:39:20 79° 284° (WNW) 17:43:46 437.465
MOZHAYETS 4 27 Jul 17:35:46 17:39:57 35° 289° (WNW) 17:44:04
GONETS M04 27 Jul 17:37:39 17:44:21 24° 293° (WNW) 17:51:07
RS-15 27 Jul 17:53:41 18:04:40 40° 254° (WSW) 18:15:30 29.354- 29.394
Cosmos 2499 27 Jul 17:56:27 18:03:19 25° 293° (WNW) 18:10:07 435.465 / 435.565
Cubesat XI-IV 27 Jul 18:00:03 18:05:09 46° 71° (ENE) 18:10:18 437.490
BRITE-PL 27 Jul 18:00:19 18:04:26 69° 76° (ENE) 18:08:35 437.365/2234.400
CUTE-I 27 Jul 18:23:15 18:28:37 76° 74° (ENE) 18:34:00 437.470
SO-50 27 Jul 18:38:52 18:41:42 16° 251° (WSW) 18:44:30 436.795
PHONESAT 2.4 27 Jul 18:39:16 18:42:21 84° 354° (N) 18:45:27 2401.200-2431.200
LilacSat-2 27 Jul 18:40:33 18:44:24 68° 259° (W) 18:48:18 437.200
NOAA 15 27 Jul 18:41:57 18:47:05 54° 259° (W) 18:52:13 137.62
DOVE 4 27 Jul 18:49:42 18:53:46 44° 72° (ENE) 18:58:04 437.250
CUBESAT XI-V 27 Jul 18:56:25 19:00:45 41° 288° (WNW) 19:05:04 437.345
CINEMA 3 27 Jul 18:58:30 19:01:27 17° 64° (ENE) 19:04:29 145.822/145.860
GOMX 1 27 Jul 18:59:39 19:03:45 59° 260° (W) 19:08:02 467.674
BEESAT 3 27 Jul 19:02:44 19:06:36 60° 304° (NW) 19:10:31 437.485
STRAND 1 27 Jul 19:03:06 19:05:29 13° 90° (E) 19:07:52 437.568
NOAA 18 27 Jul 19:04:18 19:09:35 46° 260° (W) 19:14:56 137.9125
BEESAT 2 27 Jul 19:09:53 19:13:51 83° 119° (ESE) 19:17:50 435.950
SEEDS 27 Jul 19:22:10 19:24:43 16° 66° (ENE) 19:27:16 437.485
HO-68 27 Jul 19:32:04 19:38:55 50° 67° (ENE) 19:45:48 435.675
PCSat 27 Jul 19:32:44 19:38:08 78° 116° (ESE) 19:43:35 145.827
COMPASS 1 27 Jul 19:33:09 19:35:25 14° 65° (ENE) 19:37:40 437.405
Cubesat XI-IV 27 Jul 19:41:21 19:45:25 22° 266° (W) 19:49:31 437.490
YUBILEINY 27 Jul 19:45:58 19:52:43 24° 66° (ENE) 19:59:25 435.215
AAUSAT CUBESAT 2 27 Jul 19:59:45 20:02:58 22° 69° (ENE) 20:06:12 437.432
CUBEBUG 2 27 Jul 20:00:46 20:04:24 23° 67° (ENE) 20:08:06 437.445
CANX-2 27 Jul 20:04:26 20:08:42 77° 76° (ENE) 20:12:59 2200.000
CUTE-I 27 Jul 20:06:54 20:09:12 13° 270° (W) 20:11:29 437.470
PHONESAT 2.4 27 Jul 20:15:50 20:18:56 85° 8° (N) 20:22:01 2401.200-2431.200
CUTE 1.7 + AOD 2 27 Jul 20:17:44 20:22:00 86° 253° (WSW) 20:26:18 437.475
Oscar 11 27 Jul 20:18:15 20:20:48 15° 65° (ENE) 20:23:20 145.826/435.025
DOVE 4 27 Jul 20:29:18 20:31:47 15° 270° (W) 20:34:21 437.250
CINEMA 3 27 Jul 20:33:48 20:38:08 47° 262° (W) 20:42:43 145.822/145.860
STRAND 1 27 Jul 20:40:02 20:45:07 68° 286° (WNW) 20:50:10 437.568
ISS 27 Jul 20:42:56 20:45:47 29° 134° (SE) 20:48:39 145.825
O/OREOS (USA 219) 27 Jul 20:47:20 20:51:46 75° 110° (ESE) 20:56:15 437.305
BEESAT 2 27 Jul 20:50:51 20:52:14 11° 319° (NW) 20:53:37 435.950
SEEDS 27 Jul 20:56:02 21:00:04 43° 261° (W) 21:04:06 437.485
Cosmos 2504 27 Jul 21:05:17 21:11:25 23° 66° (ENE) 21:17:12 435.465 / 435.565
COMPASS 1 27 Jul 21:06:32 21:10:34 47° 261° (W) 21:14:36 437.405
Cosmos 2491 27 Jul 21:07:39 21:15:28 39° 86° (E) 21:23:18 435.465 / 435.565
FUNcube-1 27 Jul 21:10:25 21:14:48 52° 74° (ENE) 21:19:16 145.935
ZACube-1 27 Jul 21:11:41 21:16:07 57° 74° (ENE) 21:20:38 437.345
UWE-3 27 Jul 21:12:30 21:17:05 90° 46° (NE) 21:21:46 435.000/436.395/437.385
AIST 2 27 Jul 21:15:53 21:19:59 85° 121° (ESE) 21:24:08 435.215
PCSat 27 Jul 21:18:36 21:22:10 18° 315° (NW) 21:25:46 145.827
HO-68 27 Jul 21:20:39 21:26:48 30° 264° (W) 21:33:01 435.675
M-CUBED/EXP-1 PRIME 27 Jul 21:22:46 21:26:12 33° 65° (ENE) 21:29:54 437.505
PRISM 27 Jul 21:33:20 21:37:24 62° 102° (ESE) 21:41:28 437.425
AAUSAT CUBESAT 2 27 Jul 21:34:42 21:38:18 28° 264° (W) 21:41:55 437.432
CUBEBUG 2 27 Jul 21:36:38 21:40:48 34° 264° (W) 21:45:05 437.445
YUBILEINY 27 Jul 21:41:34 21:50:24 74° 266° (W) 21:59:08 435.215
AUBIESAT-1 27 Jul 21:47:55 21:51:38 54° 68° (ENE) 21:55:40 437.475
DELFI C3 27 Jul 21:50:54 21:54:50 69° 77° (ENE) 21:58:48 145.870
Oscar 11 27 Jul 21:52:19 21:56:31 47° 261° (W) 22:00:44 145.826/435.025
PHONESAT 2.4 27 Jul 21:52:30 21:55:17 31° 205° (SSW) 21:58:04 2401.200-2431.200
ISS 27 Jul 22:19:13 22:22:10 31° 331° (NNW) 22:25:08 145.825
HUMSAT D 27 Jul 22:20:06 22:24:24 71° 76° (ENE) 22:28:42 437.325/437.525
O/OREOS (USA 219) 27 Jul 22:30:04 22:31:43 12° 308° (NW) 22:33:23 437.305
AO-85 27 Jul 22:32:19 22:36:31 43° 52° (NE) 22:40:24 145.980
AISAT 27 Jul 22:34:42 22:35:39 11° 61° (ENE) 22:36:37 437.250
TIGRISAT 27 Jul 22:36:37 22:40:25 25° 94° (E) 22:44:07 435.000
FUNcube-1 27 Jul 22:48:51 22:51:20 14° 269° (W) 22:53:51 145.935
ZACube-1 27 Jul 22:50:36 22:52:45 13° 270° (W) 22:54:55 437.345
UNISAT 6 27 Jul 22:52:51 22:57:12 39° 98° (E) 23:01:25 437.425
AIST 2 27 Jul 22:57:24 22:59:03 12° 319° (NW) 23:00:41 435.215
Cosmos 2504 27 Jul 22:57:33 23:05:36 69° 267° (W) 23:13:03 435.465 / 435.565
M-CUBED/EXP-1 PRIME 27 Jul 22:58:22 23:00:53 17° 263° (W) 23:03:32 437.505
50 SAT 27 Jul 23:02:32 23:05:00 17° 68° (ENE) 23:07:28 437.505
Cosmos 2491 27 Jul 23:03:58 23:12:08 44° 285° (WNW) 23:20:23 435.465 / 435.565
ESTCUBE 1 27 Jul 23:09:05 23:13:18 41° 71° (ENE) 23:17:31 437.505/2401.250
PRISM 27 Jul 23:11:02 23:12:11 11° 297° (WNW) 23:13:19 437.425
SPROUT 27 Jul 23:14:54 23:16:42 12° 63° (ENE) 23:18:29 437.525
CUBEBUG 1 27 Jul 23:21:49 23:25:46 36° 71° (ENE) 23:29:44 437.445
VELOX 1 27 Jul 23:22:43 23:26:38 33° 70° (ENE) 23:30:35 145.980
AUBIESAT-1 27 Jul 23:25:39 23:26:32 11° 266° (W) 23:27:25 437.475
ANTELSAT 27 Jul 23:31:07 23:35:45 80° 285° (WNW) 23:40:16 437.575/2403.000
YUBILEINY 27 Jul 23:42:12 23:45:30 13° 286° (WNW) 23:48:49 435.215
NANOSAT C BR1 27 Jul 23:53:31 23:57:03 25° 95° (E) 00:00:33 145.865
DUCHIFAT 1 27 Jul 23:57:22 00:00:56 25° 96° (E) 00:04:29 145.980
ISS 27 Jul 23:58:12 23:59:24 12° 350° (N) 00:00:36 145.825
DX 1 28 Jul 00:03:59 00:08:16 71° 75° (ENE) 00:12:36 434.975-435.025
AISAT 28 Jul 00:07:07 00:11:29 74° 257° (WSW) 00:15:54 437.250
TISAT 1 28 Jul 00:08:01 00:09:12 11° 62° (ENE) 00:10:24 437.305
BUGSAT 1 28 Jul 00:09:24 00:11:55 15° 92° (E) 00:14:26 437.445
TIGRISAT 28 Jul 00:13:02 00:17:05 31° 291° (WNW) 00:21:03 435.000
AO-85 28 Jul 00:13:51 00:16:31 16° 252° (WSW) 00:19:03 145.980
QB50P1 28 Jul 00:15:57 00:20:07 47° 99° (E) 00:24:14 145.935-145.965
UKube-1 28 Jul 00:16:06 00:20:22 76° 76° (ENE) 00:24:42 .
POPSAT HIP 1 28 Jul 00:22:26 00:26:40 56° 100° (E) 00:30:52 437.405
JAS-2 28 Jul 00:26:46 00:30:47 21° 95° (E) 00:35:02 435.910
UNISAT 6 28 Jul 00:30:14 00:33:36 20° 294° (WNW) 00:36:54 437.425
50 SAT 28 Jul 00:35:13 00:38:25 28° 263° (W) 00:41:37 437.505
AIST 1 28 Jul 00:35:31 00:39:49 58° 81° (E) 00:44:07
QB50P2 28 Jul 00:43:34 00:47:52 76° 284° (WNW) 00:52:08 145.880/145.840
POLYITAN 1 28 Jul 00:46:13 00:50:31 75° 284° (WNW) 00:54:47 437.675
ESTCUBE 1 28 Jul 00:47:15 00:50:16 17° 267° (W) 00:53:16 437.505/2401.250
SPROUT 28 Jul 00:47:54 00:52:06 59° 259° (W) 00:56:21 437.525
CUBEBUG 1 28 Jul 00:59:10 01:02:09 18° 266° (W) 01:05:10 437.445
VELOX 1 28 Jul 00:59:50 01:03:09 21° 266° (W) 01:06:28 145.980
ITUPSAT 1 28 Jul 01:15:34 01:17:53 14° 62° (ENE) 01:20:11 437.325
NANOSAT C BR1 28 Jul 01:29:08 01:32:42 26° 291° (WNW) 01:36:16 145.865
DUCHIFAT 1 28 Jul 01:33:00 01:36:33 26° 291° (WNW) 01:40:04 145.980
ISS 28 Jul 01:35:39 01:37:00 12° 11° (N) 01:38:20 145.825
Oscar 19 28 Jul 01:39:44 01:44:02 26° 95° (E) 01:48:18 437.125/150
TISAT 1 28 Jul 01:40:07 01:44:16 65° 259° (W) 01:48:29 437.305
BUGSAT 1 28 Jul 01:43:26 01:47:29 43° 287° (WNW) 01:51:30 437.445
GONETS M04 28 Jul 01:49:44 01:57:32 34° 71° (ENE) 02:05:19
QB50P1 28 Jul 01:53:02 01:55:28 15° 295° (WNW) 01:57:54 145.935-145.965
Cosmos 2499 28 Jul 01:54:59 02:00:53 23° 66° (ENE) 02:06:28 435.465 / 435.565
POPSAT HIP 1 28 Jul 01:59:58 02:01:57 13° 296° (WNW) 02:03:57 437.405
SWISSCUBE 28 Jul 02:05:31 02:10:06 47° 72° (ENE) 02:14:42 437.505
JAS-2 28 Jul 02:10:59 02:16:03 47° 289° (WNW) 02:21:34 435.910
AIST 1 28 Jul 02:15:43 02:16:51 11° 276° (W) 02:17:58
BEESAT 28 Jul 02:26:35 02:31:21 71° 74° (ENE) 02:36:07 436.000
ITUPSAT 1 28 Jul 02:50:20 02:55:07 68° 258° (WSW) 02:59:55 437.325
CUSAT 1 28 Jul 02:54:59 02:56:34 12° 94° (E) 02:58:02 437.405
AO-7 28 Jul 02:55:11 02:57:04 11° 87° (E) 02:58:58 29.400- 29.500
MOZHAYETS 4 28 Jul 03:00:36 03:03:53 19° 66° (ENE) 03:07:10
Gurwin Techsat 1B 28 Jul 03:06:41 03:12:01 78° 102° (ESE) 03:17:20 435.225
ISS 28 Jul 03:11:09 03:14:11 34° 30° (NNE) 03:17:12 145.825
ITAMSAT 1 28 Jul 03:15:58 03:20:30 30° 96° (E) 03:25:00 435.822/435.867
Oscar 19 28 Jul 03:18:41 03:23:23 37° 291° (WNW) 03:28:06 437.125/150
BEESAT 3 28 Jul 03:20:36 03:24:31 56° 56° (NE) 03:28:24 437.485
DANDE 28 Jul 03:25:23 03:28:11 14° 93° (E) 03:30:39 436.750
BEESAT 2 28 Jul 03:28:46 03:32:30 36° 53° (NE) 03:36:13 435.950
SWISSCUBE 28 Jul 03:44:58 03:48:07 17° 267° (W) 03:51:17 437.505
GONETS M04 28 Jul 03:46:12 03:54:38 52° 270° (W) 04:03:04
Cosmos 2499 28 Jul 03:47:02 03:54:43 65° 268° (W) 04:01:51 435.465 / 435.565
KKS-1 28 Jul 03:54:25 03:58:48 67° 74° (ENE) 04:03:14 437.445
BEESAT 28 Jul 04:08:03 04:09:35 11° 270° (W) 04:11:07 436.000
PCSat 28 Jul 04:21:31 04:26:49 51° 57° (ENE) 04:32:04 145.827
CUBESAT XI-V 28 Jul 04:23:01 04:25:59 17° 65° (ENE) 04:28:58 437.345
STARS 28 Jul 04:30:18 04:34:41 82° 77° (ENE) 04:39:07 437.465
CUSAT 1 28 Jul 04:34:48 04:38:28 31° 281° (W) 04:41:26 437.405
MOZHAYETS 4 28 Jul 04:36:21 04:40:44 41° 262° (W) 04:45:08
AO-7 28 Jul 04:42:54 04:51:14 68° 105° (ESE) 04:59:30 29.400- 29.500
ISS 28 Jul 04:47:46 04:50:30 25° 227° (SW) 04:53:14 145.825
Gurwin Techsat 1B 28 Jul 04:48:38 04:51:16 14° 300° (WNW) 04:53:55 435.225
ITAMSAT 1 28 Jul 04:55:21 04:59:55 32° 292° (WNW) 05:04:27 435.822/435.867
BEESAT 3 28 Jul 05:00:17 05:01:42 12° 252° (WSW) 05:03:06 437.485
DANDE 28 Jul 05:05:23 05:10:52 52° 280° (W) 05:15:00 436.750
BEESAT 2 28 Jul 05:07:16 05:10:04 18° 249° (WSW) 05:12:52 435.950
HORYU 2 28 Jul 05:10:57 05:14:25 22° 95° (E) 05:17:52 437.375
O/OREOS (USA 219) 28 Jul 05:20:27 05:22:43 13° 54° (NE) 05:24:58 437.305
KKS-1 28 Jul 05:35:01 05:35:48 10° 270° (W) 05:36:35 437.445
AIST 2 28 Jul 05:38:02 05:42:00 41° 54° (NE) 05:45:57 435.215
CUBESAT XI-V 28 Jul 05:58:33 06:02:59 47° 261° (W) 06:07:26 437.345
RS-15 28 Jul 06:03:13 06:13:28 41° 107° (ESE) 06:24:13 29.354- 29.394
BRITE-PL 28 Jul 06:04:54 06:09:01 26° 96° (E) 06:13:21 437.365/2234.400
PCSat 28 Jul 06:05:49 06:09:48 21° 254° (WSW) 06:13:45 145.827
LilacSat-2 28 Jul 06:16:17 06:18:16 14° 92° (E) 06:20:14 437.200
STRAND 1 28 Jul 06:17:45 06:21:20 19° 64° (ENE) 06:24:55 437.568
Cubesat XI-IV 28 Jul 06:19:00 06:22:47 19° 93° (E) 06:26:32 437.490
AO-7 28 Jul 06:36:37 06:43:20 28° 304° (WNW) 06:50:02 29.400- 29.500
CUTE-I 28 Jul 06:41:34 06:46:19 32° 96° (E) 06:51:02 437.470
HORYU 2 28 Jul 06:47:00 06:51:01 33° 290° (WNW) 06:54:59 437.375
DOVE 4 28 Jul 06:49:47 06:53:00 16° 91° (E) 06:56:14 437.250
NOAA 15 28 Jul 06:57:42 07:02:55 61° 101° (ESE) 07:08:07 137.62
O/OREOS (USA 219) 28 Jul 06:58:04 07:02:35 66° 251° (WSW) 07:07:06 437.305
GOMX 1 28 Jul 07:01:01 07:05:54 44° 98° (E) 07:11:01 467.674
SO-50 28 Jul 07:11:12 07:14:50 21° 111° (ESE) 07:18:30 436.795
AIST 2 28 Jul 07:17:21 07:20:10 18° 250° (WSW) 07:22:58 435.215
Cosmos 2491 28 Jul 07:19:33 07:25:10 18° 63° (ENE) 07:30:45 435.465 / 435.565
NOAA 18 28 Jul 07:26:52 07:32:27 81° 104° (ESE) 07:37:58 137.9125
BRITE-PL 28 Jul 07:43:04 07:47:29 35° 289° (WNW) 07:52:13 437.365/2234.400
LilacSat-2 28 Jul 07:49:07 07:52:44 38° 287° (WNW) 07:56:18 437.200
CANX-2 28 Jul 07:51:53 07:54:05 14° 91° (E) 07:56:16 2200.000
STRAND 1 28 Jul 07:55:06 08:00:06 51° 260° (W) 08:05:08 437.568
Cubesat XI-IV 28 Jul 07:57:57 08:03:08 51° 289° (WNW) 08:08:16 437.490
CUTE 1.7 + AOD 2 28 Jul 08:04:35 08:07:21 17° 93° (E) 08:10:06 437.475
RS-15 28 Jul 08:14:05 08:25:25 60° 310° (NW) 08:37:25 29.354- 29.394
CUTE-I 28 Jul 08:21:38 08:26:17 31° 293° (WNW) 08:30:55 437.470
PRISM 28 Jul 08:21:54 08:25:41 38° 72° (ENE) 08:29:28 437.425
DOVE 4 28 Jul 08:25:53 08:30:59 60° 286° (WNW) 08:36:11 437.250
CINEMA 3 28 Jul 08:28:58 08:33:48 45° 98° (E) 08:38:33 145.822/145.860
NOAA 15 28 Jul 08:38:49 08:42:11 17° 298° (WNW) 08:45:32 137.62
GOMX 1 28 Jul 08:39:45 08:43:43 23° 292° (WNW) 08:47:49 467.674
SEEDS 28 Jul 08:40:46 08:44:29 30° 96° (E) 08:48:09 437.485
YUBILEINY 28 Jul 08:46:35 08:53:31 27° 82° (E) 09:00:28 435.215
HO-68 28 Jul 08:47:52 08:54:56 56° 101° (ESE) 09:01:56 435.675
SO-50 28 Jul 08:50:20 08:55:02 46° 307° (NW) 08:59:42 436.795
COMPASS 1 28 Jul 08:50:22 08:53:54 27° 96° (E) 08:57:25 437.405
FUNcube-1 28 Jul 09:02:26 09:03:11 10° 89° (E) 09:03:54 145.935
ZACube-1 28 Jul 09:03:14 09:04:53 12° 89° (E) 09:06:31 437.345
UWE-3 28 Jul 09:04:03 09:07:26 20° 93° (E) 09:10:44 435.000/436.395/437.385
NOAA 18 28 Jul 09:09:30 09:12:22 14° 301° (WNW) 09:15:13 137.9125
Cosmos 2491 28 Jul 09:14:27 09:23:16 89° 88° (E) 09:32:05 435.465 / 435.565
AAUSAT CUBESAT 2 28 Jul 09:17:08 09:21:05 43° 99° (E) 09:25:00 437.432
CANX-2 28 Jul 09:26:09 09:30:11 45° 287° (WNW) 09:34:11 2200.000
CUBEBUG 2 28 Jul 09:27:55 09:32:33 55° 100° (E) 09:37:02 437.445
TIGRISAT 28 Jul 09:34:34 09:38:02 21° 66° (ENE) 09:41:32 435.000
CUTE 1.7 + AOD 2 28 Jul 09:39:26 09:43:20 37° 288° (WNW) 09:47:11 437.475
Oscar 11 28 Jul 09:40:26 09:44:17 31° 96° (E) 09:48:07 145.826/435.025
Cosmos 2504 28 Jul 09:42:51 09:48:55 21° 79° (E) 09:54:58 435.465 / 435.565
UNISAT 6 28 Jul 09:50:35 09:54:42 32° 70° (ENE) 09:58:52 437.425
PRISM 28 Jul 09:58:42 10:01:08 15° 267° (W) 10:03:36 437.425
HUMSAT D 28 Jul 10:06:41 10:08:09 12° 90° (E) 10:09:36 437.325/437.525
CINEMA 3 28 Jul 10:06:52 10:10:34 21° 294° (WNW) 10:14:13 145.822/145.860
SEEDS 28 Jul 10:16:52 10:19:59 21° 292° (WNW) 10:23:06 437.485
COMPASS 1 28 Jul 10:26:04 10:29:20 23° 291° (WNW) 10:32:34 437.405
ANTELSAT 28 Jul 10:28:23 10:33:01 80° 76° (ENE) 10:37:45 437.575/2403.000
RS-15 28 Jul 10:32:08 10:41:15 24° 339° (NNW) 10:50:41 29.354- 29.394
FUNcube-1 28 Jul 10:35:26 10:39:54 66° 284° (WNW) 10:44:12 145.935
HO-68 28 Jul 10:36:18 10:42:13 29° 299° (WNW) 10:48:07 435.675
M-CUBED/EXP-1 PRIME 28 Jul 10:36:26 10:40:44 34° 102° (ESE) 10:44:58 437.505
ZACube-1 28 Jul 10:37:08 10:41:35 59° 286° (WNW) 10:45:52 437.345
UWE-3 28 Jul 10:39:46 10:44:00 37° 289° (WNW) 10:48:07 435.000/436.395/437.385
YUBILEINY 28 Jul 10:40:55 10:49:35 63° 281° (W) 10:58:23 435.215
NANOSAT C BR1 28 Jul 10:45:29 10:48:18 18° 66° (ENE) 10:51:08 145.865
DUCHIFAT 1 28 Jul 10:49:03 10:51:54 18° 66° (ENE) 10:54:47 145.980
AAUSAT CUBESAT 2 28 Jul 10:53:52 10:56:11 15° 294° (WNW) 10:58:29 437.432
AUBIESAT-1 28 Jul 11:01:13 11:05:46 51° 104° (ESE) 11:10:13 437.475
DELFI C3 28 Jul 11:03:58 11:07:52 61° 285° (WNW) 11:11:45 145.870
CUBEBUG 2 28 Jul 11:05:54 11:08:39 16° 296° (WNW) 11:11:22 437.445
QB50P1 28 Jul 11:07:35 11:11:20 32° 71° (ENE) 11:15:09 145.935-145.965
TIGRISAT 28 Jul 11:10:07 11:14:25 39° 262° (W) 11:18:50 435.000
Cosmos 2491 28 Jul 11:13:42 11:18:49 17° 283° (WNW) 11:23:57 435.465 / 435.565
POPSAT HIP 1 28 Jul 11:14:01 11:17:54 37° 71° (ENE) 11:21:51 437.405
Oscar 11 28 Jul 11:16:56 11:20:14 22° 292° (WNW) 11:23:31 145.826/435.025
UNISAT 6 28 Jul 11:27:38 11:31:24 24° 265° (W) 11:35:15 437.425
Cosmos 2504 28 Jul 11:32:22 11:41:15 81° 278° (W) 11:50:08 435.465 / 435.565
QB50P2 28 Jul 11:34:55 11:39:09 70° 75° (ENE) 11:43:25 145.880/145.840
POLYITAN 1 28 Jul 11:37:33 11:41:47 72° 76° (ENE) 11:46:04 437.675
HUMSAT D 28 Jul 11:40:01 11:44:06 53° 286° (WNW) 11:48:07 437.325/437.525
DX 1 28 Jul 11:54:45 11:56:45 13° 92° (E) 11:58:46 434.975-435.025
AISAT 28 Jul 11:58:40 12:02:09 22° 95° (E) 12:05:37 437.250
50 SAT 28 Jul 12:04:38 12:07:29 22° 96° (E) 12:10:19 437.505
UKube-1 28 Jul 12:05:42 12:07:48 13° 92° (E) 12:09:53 .
M-CUBED/EXP-1 PRIME 28 Jul 12:11:09 12:15:02 26° 297° (WNW) 12:18:57 437.505
NANOSAT C BR1 28 Jul 12:19:45 12:23:43 39° 262° (W) 12:27:43 145.865
JAS-2 28 Jul 12:21:59 12:27:57 64° 74° (ENE) 12:33:20 435.910
DUCHIFAT 1 28 Jul 12:23:22 12:27:17 38° 262° (W) 12:31:16 145.980
BUGSAT 1 28 Jul 12:31:48 12:35:52 71° 259° (W) 12:40:01 437.445
SPROUT 28 Jul 12:35:04 12:38:37 24° 95° (E) 12:42:08 437.525
AUBIESAT-1 28 Jul 12:36:38 12:39:47 18° 300° (WNW) 12:42:55 437.475
ESTCUBE 1 28 Jul 12:38:38 12:43:07 79° 286° (WNW) 12:47:36 437.505/2401.250
QB50P1 28 Jul 12:43:59 12:47:09 20° 266° (W) 12:50:22 145.935-145.965
AO-85 28 Jul 12:45:39 12:49:42 22° 110° (ESE) 12:53:39 145.980
YUBILEINY 28 Jul 12:45:49 12:48:26 11° 303° (WNW) 12:51:03 435.215
CUBEBUG 1 28 Jul 12:46:44 12:51:10 85° 103° (ESE) 12:55:35 437.445
VELOX 1 28 Jul 12:49:15 12:53:43 76° 102° (ESE) 12:58:09 145.980
Gurwin Techsat 1B 28 Jul 12:50:06 12:52:56 15° 61° (ENE) 12:55:47 435.225
RS-15 28 Jul 12:50:51 12:59:55 23° 16° (NNE) 13:09:01 29.354- 29.394
POPSAT HIP 1 28 Jul 12:50:55 12:53:48 18° 267° (W) 12:56:43 437.405
Oscar 19 28 Jul 12:55:43 13:00:19 35° 69° (ENE) 13:04:55 437.125/150
AIST 1 28 Jul 13:04:06 13:07:56 34° 91° (E) 13:11:48
TISAT 1 28 Jul 13:25:32 13:28:42 20° 94° (E) 13:31:50 437.305
DX 1 28 Jul 13:28:58 13:33:15 53° 287° (WNW) 13:37:31 434.975-435.025
Cosmos 2504 28 Jul 13:30:40 13:36:01 17° 298° (WNW) 13:41:21 435.465 / 435.565
AISAT 28 Jul 13:34:40 13:38:39 33° 290° (WNW) 13:42:38 437.250
50 SAT 28 Jul 13:38:16 13:41:00 21° 291° (WNW) 13:43:43 437.505
UKube-1 28 Jul 13:39:55 13:44:07 51° 287° (WNW) 13:48:18 .
AO-7 28 Jul 13:51:54 13:57:20 19° 51° (NE) 14:02:45 29.400- 29.500
SWISSCUBE 28 Jul 14:08:28 14:10:28 12° 91° (E) 14:12:27 437.505
JAS-2 28 Jul 14:09:49 14:13:20 16° 267° (W) 14:16:42 435.910
SPROUT 28 Jul 14:10:49 14:14:30 28° 291° (WNW) 14:18:09 437.525
AO-85 28 Jul 14:24:38 14:29:53 53° 305° (NW) 14:34:55 145.980
Gurwin Techsat 1B 28 Jul 14:26:56 14:32:14 74° 257° (WSW) 14:37:35 435.225
BEESAT 28 Jul 14:28:31 14:31:52 19° 93° (E) 14:35:11 436.000
VELOX 1 28 Jul 14:28:37 14:29:32 11° 299° (WNW) 14:30:27 145.980
Cosmos 2499 28 Jul 14:30:38 14:36:44 21° 80° (E) 14:42:43 435.465 / 435.565
ITAMSAT 1 28 Jul 14:32:56 14:37:50 43° 70° (ENE) 14:42:45 435.822/435.867
Oscar 19 28 Jul 14:35:23 14:39:39 27° 265° (W) 14:43:57 437.125/150
AIST 1 28 Jul 14:42:46 14:45:39 18° 288° (WNW) 14:48:32
GONETS M04 28 Jul 14:49:58 14:57:45 39° 86° (E) 15:05:35
ITUPSAT 1 28 Jul 14:51:56 14:56:12 32° 97° (E) 15:00:26 437.325
TISAT 1 28 Jul 15:00:34 15:04:23 32° 290° (WNW) 15:08:11 437.305
RS-15 28 Jul 15:04:24 15:16:23 52° 47° (NE) 15:28:12 29.354- 29.394
CUSAT 1 28 Jul 15:06:24 15:09:30 67° 262° (W) 15:13:27 437.405
AO-7 28 Jul 15:40:31 15:48:53 83° 71° (ENE) 15:57:19 29.400- 29.500
SO-50 28 Jul 15:43:05 15:46:14 18° 42° (NE) 15:49:19 436.795
SWISSCUBE 28 Jul 15:43:57 15:48:40 64° 286° (WNW) 15:53:21 437.505
DANDE 28 Jul 15:44:11 15:46:49 81° 261° (W) 15:49:51 436.750
KKS-1 28 Jul 15:47:46 15:50:04 14° 92° (E) 15:52:21 437.445
PHONESAT 2.4 28 Jul 15:58:16 16:00:29 18° 150° (SSE) 16:02:42 2401.200-2431.200
BEESAT 28 Jul 16:05:19 16:09:49 43° 289° (WNW) 16:14:18 436.000
HORYU 2 28 Jul 16:08:29 16:11:42 20° 66° (ENE) 16:14:55 437.375
AO-85 28 Jul 16:10:31 16:11:26 10° 324° (NW) 16:12:21 145.980
ITAMSAT 1 28 Jul 16:13:24 16:17:26 22° 266° (W) 16:21:30 435.822/435.867
Cosmos 2499 28 Jul 16:19:58 16:28:53 80° 278° (W) 16:37:35 435.465 / 435.565
STARS 28 Jul 16:21:46 16:24:29 16° 93° (E) 16:27:11 437.465
ITUPSAT 1 28 Jul 16:29:58 16:33:53 26° 293° (WNW) 16:37:47 437.325
MOZHAYETS 4 28 Jul 16:31:55 16:36:21 47° 99° (E) 16:40:43
NOAA 15 28 Jul 16:41:32 16:43:12 11° 59° (ENE) 16:44:52 137.62
GONETS M04 28 Jul 16:46:15 16:54:24 44° 285° (WNW) 17:02:39
BEESAT 3 28 Jul 17:13:12 17:14:15 11° 108° (ESE) 17:15:17 437.485
NOAA 18 28 Jul 17:13:58 17:17:48 19° 62° (ENE) 17:21:38 137.9125
BRITE-PL 28 Jul 17:16:16 17:19:26 22° 68° (ENE) 17:22:38 437.365/2234.400
